Weather History for KMML - October, 2012

Change the Weather History Date:

Monday, October 8, 2012

  Actual Average Record
Temperature  
Mean Temperature 52 °F -  
Max Temperature 68 °F 61 °F 87 °F (2010)
Min Temperature 37 °F 39 °F 17 °F (2000)
Degree Days  
Heating Degree Days 12    
Growing Degree Days 2 (Base 50)    
Moisture  
Dew Point 28 °F    
Average Humidity 39    
Maximum Humidity 58    
Minimum Humidity 26    
Precipitation  
Precipitation 0.00 in - - ()
Sea Level Pressure  
Sea Level Pressure 29.71 in    
Wind  
Wind Speed 15 mph (WSW)    
Max Wind Speed 30 mph    
Max Gust Speed 38 mph    
Visibility 10 miles    
Events      
Averages and records for this station are not official NWS values.
T = Trace of Precipitation, MM = Missing Value Source: NWS Daily Summary

Daily Weather History Graph

Daily Weather History Graph

Search for Another Location

Airport or City:

Trip Planner

Search our weather history database for the weather conditions in past years. The results will help you decide how hot, cold, wet, or windy it might be!

Date:

Astronomy

Oct. 08, 2012 Rise Set
Actual Time 7:30 AM CDT 6:50 PM CDT
Civil Twilight 7:01 AM CDT 7:19 PM CDT
Nautical Twilight 6:27 AM CDT 7:52 PM CDT
Astronomical Twilight 5:53 AM CDT 8:26 PM CDT
Moon No Moon Rise 2:54 PM CDT (10/8)
Length of Visible Light 12h 18m
Length of Day
11h 20m
Last Quarter, 46% of the Moon is Illuminated
Oct 8
Last Quarter
Oct 15
New
Oct 21
First Quarter
Oct 29
Full
Nov 6
Last Quarter

Hourly Weather History & Observations

Time (CDT) Temp. Windchill Dew Point Humidity Pressure Visibility Wind Dir Wind Speed Gust Speed Precip Events Conditions
12:15 AM 39.2 °F 32.0 °F 19.4 °F 45% 29.83 in 10.0 mi SSW 11.5 mph - N/A   Clear
12:35 AM 39.2 °F 31.2 °F 19.4 °F 45% 29.82 in 10.0 mi SSW 13.8 mph - N/A   Clear
12:55 AM 41.0 °F 33.5 °F 17.6 °F 39% 29.82 in 10.0 mi SW 13.8 mph - N/A   Clear
1:15 AM 39.2 °F 31.6 °F 17.6 °F 42% 29.82 in 10.0 mi SSW 12.7 mph - N/A   Clear
1:35 AM 37.4 °F 29.8 °F 17.6 °F 45% 29.82 in 10.0 mi SSW 11.5 mph - N/A   Clear
1:55 AM 41.0 °F 34.3 °F 17.6 °F 39% 29.81 in 10.0 mi SW 11.5 mph - N/A   Clear
2:15 AM 44.6 °F 38.1 °F 17.6 °F 34% 29.81 in 10.0 mi SW 13.8 mph - N/A   Clear
2:35 AM 44.6 °F 38.1 °F 17.6 °F 34% 29.81 in 10.0 mi SW 13.8 mph - N/A   Clear
2:55 AM 44.6 °F 39.2 °F 17.6 °F 34% 29.80 in 10.0 mi SW 10.4 mph - N/A   Mostly Cloudy
3:15 AM 44.6 °F 38.4 °F 19.4 °F 37% 29.79 in 10.0 mi SW 12.7 mph - N/A   Overcast
3:35 AM 46.4 °F 40.7 °F 19.4 °F 34% 29.78 in 10.0 mi SW 12.7 mph - N/A   Overcast
3:55 AM 46.4 °F 41.1 °F 19.4 °F 34% 29.77 in 10.0 mi SW 11.5 mph - N/A   Overcast
4:15 AM 46.4 °F 41.5 °F 19.4 °F 34% 29.77 in 10.0 mi SW 10.4 mph - N/A   Overcast
4:35 AM 46.4 °F 41.1 °F 19.4 °F 34% 29.76 in 10.0 mi SSW 11.5 mph - N/A   Overcast
4:55 AM 46.4 °F 40.4 °F 19.4 °F 34% 29.76 in 10.0 mi SW 13.8 mph - N/A   Overcast
5:15 AM 46.4 °F 40.7 °F 21.2 °F 37% 29.75 in 10.0 mi SW 12.7 mph - N/A   Overcast
5:35 AM 46.4 °F 39.5 °F 21.2 °F 37% 29.75 in 10.0 mi SW 17.3 mph - N/A   Overcast
5:55 AM 48.2 °F - 21.2 °F 34% 29.74 in 10.0 mi SW 13.8 mph - N/A   Overcast
6:15 AM 48.2 °F - 23.0 °F 37% 29.74 in 10.0 mi SW 15.0 mph - N/A   Overcast
6:35 AM 48.2 °F - 23.0 °F 37% 29.73 in 10.0 mi SW 12.7 mph - N/A   Overcast
6:55 AM 48.2 °F - 23.0 °F 37% 29.73 in 10.0 mi SW 13.8 mph 19.6 mph N/A   Overcast
7:15 AM 48.2 °F - 23.0 °F 37% 29.72 in 10.0 mi SW 13.8 mph - N/A   Overcast
7:35 AM 48.2 °F - 23.0 °F 37% 29.72 in 10.0 mi SW 16.1 mph - N/A   Overcast
7:55 AM 48.2 °F - 24.8 °F 40% 29.72 in 10.0 mi SW 15.0 mph - N/A   Mostly Cloudy
8:15 AM 48.2 °F - 24.8 °F 40% 29.72 in 10.0 mi SW 15.0 mph - N/A   Mostly Cloudy
8:35 AM 46.4 °F 40.1 °F 24.8 °F 43% 29.71 in 10.0 mi SSW 15.0 mph - N/A   Overcast
8:55 AM 48.2 °F - 24.8 °F 40% 29.70 in 10.0 mi SW 19.6 mph 23.0 mph N/A   Overcast
9:15 AM 48.2 °F - 24.8 °F 40% 29.69 in 10.0 mi SW 18.4 mph 23.0 mph N/A   Overcast
9:35 AM 50.0 °F - 24.8 °F 37% 29.68 in 10.0 mi SW 18.4 mph 24.2 mph N/A   Mostly Cloudy
9:55 AM 51.8 °F - 26.6 °F 38% 29.67 in 10.0 mi SW 17.3 mph 25.3 mph N/A   Mostly Cloudy
10:15 AM 51.8 °F - 26.6 °F 38% 29.67 in 10.0 mi SW 17.3 mph - N/A   Overcast
10:35 AM 51.8 °F - 26.6 °F 38% 29.67 in 10.0 mi SW 17.3 mph - N/A   Overcast
10:55 AM 53.6 °F - 26.6 °F 35% 29.65 in 10.0 mi SW 18.4 mph 21.9 mph N/A   Mostly Cloudy
11:15 AM 55.4 °F - 26.6 °F 33% 29.64 in 10.0 mi SW 20.7 mph 25.3 mph N/A   Partly Cloudy
11:35 AM 57.2 °F - 28.4 °F 33% 29.63 in 10.0 mi SSW 18.4 mph 26.5 mph N/A   Mostly Cloudy
11:55 AM 60.8 °F - 28.4 °F 29% 29.62 in 10.0 mi SW 18.4 mph 26.5 mph N/A   Mostly Cloudy
12:15 PM 60.8 °F - 28.4 °F 29% 29.62 in 10.0 mi SW 23.0 mph - N/A   Mostly Cloudy
12:35 PM 62.6 °F - 28.4 °F 27% 29.62 in 10.0 mi SW 24.2 mph 31.1 mph N/A   Scattered Clouds
12:55 PM 64.4 °F - 28.4 °F 26% 29.61 in 10.0 mi WSW 21.9 mph 32.2 mph N/A   Partly Cloudy
1:15 PM 64.4 °F - 30.2 °F 28% 29.60 in 10.0 mi WSW 24.2 mph 32.2 mph N/A   Partly Cloudy
1:35 PM 66.2 °F - 30.2 °F 26% 29.60 in 10.0 mi WSW 27.6 mph 36.8 mph N/A   Clear
1:55 PM 64.4 °F - 30.2 °F 28% 29.60 in 10.0 mi West 28.8 mph 35.7 mph N/A   Clear
2:15 PM 66.2 °F - 33.8 °F 30% 29.59 in 10.0 mi WSW 28.8 mph 34.5 mph N/A   Clear
2:35 PM 68.0 °F - 33.8 °F 28% 29.60 in 10.0 mi West 25.3 mph 34.5 mph N/A   Clear
2:55 PM 66.2 °F - 35.6 °F 32% 29.60 in 10.0 mi West 29.9 mph 38.0 mph N/A   Scattered Clouds
3:15 PM 66.2 °F - 37.4 °F 35% 29.61 in 10.0 mi West 26.5 mph 33.4 mph N/A   Partly Cloudy
3:35 PM 66.2 °F - 37.4 °F 35% 29.61 in 10.0 mi WNW 23.0 mph 34.5 mph N/A   Partly Cloudy
3:55 PM 66.2 °F - 37.4 °F 35% 29.62 in 10.0 mi West 28.8 mph 36.8 mph N/A   Mostly Cloudy
4:15 PM 64.4 °F - 37.4 °F 37% 29.63 in 10.0 mi WNW 25.3 mph - N/A   Mostly Cloudy
4:35 PM 64.4 °F - 37.4 °F 37% 29.63 in 10.0 mi WNW 23.0 mph 29.9 mph N/A   Mostly Cloudy
4:55 PM 64.4 °F - 37.4 °F 37% 29.64 in 10.0 mi WNW 19.6 mph 28.8 mph N/A   Overcast
5:15 PM 62.6 °F - 37.4 °F 39% 29.65 in 10.0 mi WNW 17.3 mph 28.8 mph N/A   Overcast
5:35 PM 62.6 °F - 37.4 °F 39% 29.66 in 10.0 mi WNW 21.9 mph 28.8 mph N/A   Overcast
5:55 PM 62.6 °F - 37.4 °F 39% 29.67 in 10.0 mi WNW 19.6 mph - N/A   Overcast
6:15 PM 60.8 °F - 37.4 °F 42% 29.68 in 10.0 mi NW 21.9 mph - N/A   Overcast
6:35 PM 60.8 °F - 37.4 °F 42% 29.69 in 10.0 mi NW 16.1 mph - N/A   Overcast
6:55 PM 59.0 °F - 37.4 °F 45% 29.71 in 10.0 mi NNW 15.0 mph - N/A   Overcast
7:15 PM 57.2 °F - 37.4 °F 48% 29.72 in 10.0 mi NW 17.3 mph - N/A   Mostly Cloudy
7:35 PM 57.2 °F - 35.6 °F 44% 29.73 in 10.0 mi NW 16.1 mph - N/A   Partly Cloudy
7:55 PM 55.4 °F - 35.6 °F 47% 29.73 in 10.0 mi NNW 11.5 mph - N/A   Partly Cloudy
8:15 PM 55.4 °F - 35.6 °F 47% 29.74 in 10.0 mi NNW 9.2 mph - N/A   Clear
8:35 PM 53.6 °F - 35.6 °F 51% 29.75 in 10.0 mi NW 8.1 mph - N/A   Scattered Clouds
8:55 PM 51.8 °F - 35.6 °F 54% 29.75 in 10.0 mi NW 5.8 mph - N/A   Partly Cloudy
9:15 PM 51.8 °F - 35.6 °F 54% 29.75 in 10.0 mi West 4.6 mph - N/A   Partly Cloudy
9:35 PM 50.0 °F - 35.6 °F 58% 29.75 in 10.0 mi SW 4.6 mph - N/A   Mostly Cloudy
9:55 PM 51.8 °F - 35.6 °F 54% 29.75 in 10.0 mi SW 5.8 mph - N/A   Mostly Cloudy
10:15 PM 51.8 °F - 35.6 °F 54% 29.76 in 10.0 mi SW 4.6 mph - N/A   Mostly Cloudy
10:55 PM 51.8 °F - 35.6 °F 54% 29.76 in 10.0 mi WSW 8.1 mph - N/A   Mostly Cloudy
11:35 PM 51.8 °F - 35.6 °F 54% 29.76 in 10.0 mi WSW 8.1 mph - N/A   Overcast
11:55 PM 51.8 °F - 35.6 °F 54% 29.76 in 10.0 mi West 9.2 mph - N/A   Overcast